Total_Precipitation_Accumulation
0.00 0.01 0.02 0.02 0.02 0.03 0.05 0.07 0.11 0.15 0.14 0.16 0.32 0.50 0.52 0.66 0.90 1.12 1.42 1.71 1.97 2.27 2.69 3.09 3.13 3.27 3.52 4.00 4.28 4.36 4.52 4.46 4.22 3.86 3.45 3.26 3.11 3.02 2.87 2.64 2.37 2.27 2.25 2.32
0.01 0.03 0.01 0.01 0.02 0.03 0.06 0.09 0.13 0.15 0.13 0.15 0.29 0.47 0.58 0.89 1.15 1.17 1.24 1.39 1.61 2.05 2.46 2.74 2.79 2.78 3.10 3.66 4.08 4.17 3.93 3.80 3.69 3.47 3.32 3.26 3.35 3.04 2.75 2.55 2.28 2.09 2.11 2.18
0.03 0.03 0.02 0.02 0.02 0.03 0.05 0.06 0.11 0.16 0.15 0.19 0.29 0.58 0.77 1.00 1.12 1.15 1.21 1.29 1.43 1.77 2.12 2.39 2.37 2.41 2.62 2.73 2.97 3.12 3.23 3.06 2.89 2.80 2.80 2.87 2.97 2.69 2.41 2.28 2.15 1.96 1.86 1.82
0.03 0.03 0.03 0.04 0.04 0.04 0.06 0.07 0.06 0.08 0.14 0.26 0.38 0.89 1.10 1.01 1.08 1.21 1.21 1.21 1.42 1.74 1.71 1.81 1.91 2.02 2.24 2.31 2.42 2.47 2.48 2.53 2.43 2.39 2.37 2.26 2.17 2.03 1.94 1.92 1.85 1.81 1.73 1.65
0.05 0.04 0.03 0.05 0.05 0.04 0.05 0.05 0.06 0.09 0.17 0.28 0.38 0.69 1.04 1.28 1.36 1.18 1.10 1.05 1.25 1.37 1.26 1.29 1.41 1.45 1.60 1.69 1.84 1.96 2.04 2.06 2.04 2.02 1.98 1.94 1.84 1.83 1.78 1.70 1.63 1.56 1.50 1.51
0.05 0.05 0.04 0.04 0.04 0.04 0.04 0.06 0.12 0.23 0.41 0.63 0.53 0.64 1.03 1.31 1.46 1.16 1.05 1.02 1.12 1.08 1.04 1.16 1.22 1.20 1.24 1.39 1.52 1.65 1.76 1.76 1.76 1.75 1.74 1.69 1.64 1.64 1.58 1.48 1.45 1.39 1.35 1.27
0.12 0.12 0.10 0.06 0.05 0.06 0.06 0.12 0.45 0.80 1.09 1.11 0.71 0.74 1.07 1.05 1.02 0.97 0.96 1.04 1.05 0.96 0.88 0.87 0.91 0.99 1.04 1.13 1.17 1.22 1.35 1.42 1.36 1.33 1.35 1.33 1.34 1.35 1.28 1.21 1.15 1.08 0.99 0.95
0.17 0.24 0.15 0.09 0.09 0.09 0.10 0.15 0.50 0.76 0.81 0.91 0.79 1.05 1.37 1.06 0.95 0.87 0.91 1.00 0.97 0.83 0.73 0.69 0.69 0.74 0.78 0.81 0.82 0.85 0.98 1.10 1.14 1.12 1.08 1.00 0.98 0.99 0.94 0.99 0.93 0.87 0.78 0.72
0.10 0.11 0.08 0.08 0.09 0.11 0.15 0.17 0.23 0.43 0.47 0.67 0.87 1.14 1.27 0.95 0.89 0.94 1.04 1.05 0.98 0.76 0.59 0.54 0.55 0.57 0.58 0.57 0.62 0.67 0.79 0.90 0.97 0.98 0.91 0.84 0.82 0.81 0.78 0.81 0.85 0.82 0.82 0.71
0.06 0.05 0.06 0.07 0.09 0.12 0.15 0.15 0.19 0.36 0.51 0.69 0.79 1.13 1.36 1.21 1.15 1.10 1.14 0.98 0.69 0.52 0.44 0.40 0.39 0.38 0.40 0.43 0.52 0.60 0.68 0.71 0.75 0.80 0.79 0.65 0.69 0.75 0.74 0.72 0.71 0.71 0.71 0.69
0.05 0.04 0.06 0.09 0.12 0.14 0.19 0.21 0.28 0.39 0.41 0.60 0.88 1.04 0.96 0.94 0.98 1.07 1.02 0.80 0.54 0.40 0.32 0.32 0.32 0.33 0.35 0.36 0.46 0.56 0.65 0.72 0.74 0.77 0.80 0.69 0.64 0.63 0.62 0.64 0.63 0.63 0.61 0.63
0.07 0.06 0.10 0.16 0.18 0.17 0.17 0.19 0.28 0.42 0.40 0.43 0.62 0.73 0.51 0.52 0.58 0.62 0.64 0.54 0.44 0.40 0.30 0.30 0.34 0.36 0.36 0.40 0.47 0.54 0.61 0.68 0.72 0.79 0.86 0.82 0.73 0.67 0.62 0.59 0.58 0.55 0.53 0.56
0.10 0.11 0.16 0.37 0.48 0.30 0.18 0.17 0.19 0.24 0.27 0.28 0.47 0.58 0.38 0.40 0.47 0.57 0.67 0.70 0.65 0.55 0.37 0.32 0.35 0.37 0.37 0.42 0.50 0.59 0.67 0.69 0.72 0.82 0.96 0.96 0.80 0.72 0.69 0.62 0.55 0.52 0.49 0.49
0.11 0.14 0.18 0.40 0.51 0.39 0.30 0.23 0.19 0.22 0.30 0.28 0.29 0.41 0.40 0.42 0.48 0.59 0.68 0.70 0.60 0.49 0.39 0.34 0.37 0.40 0.41 0.43 0.43 0.45 0.50 0.52 0.59 0.64 0.76 0.87 0.82 0.69 0.56 0.48 0.49 0.51 0.50 0.52
0.09 0.11 0.12 0.15 0.21 0.29 0.31 0.26 0.20 0.17 0.21 0.33 0.31 0.33 0.39 0.46 0.42 0.50 0.54 0.47 0.44 0.38 0.39 0.39 0.42 0.44 0.46 0.43 0.38 0.34 0.31 0.30 0.36 0.43 0.50 0.60 0.55 0.48 0.45 0.43 0.37 0.36 0.40 0.43
0.16 0.16 0.15 0.13 0.16 0.21 0.24 0.25 0.17 0.13 0.12 0.15 0.24 0.39 0.39 0.39 0.42 0.41 0.41 0.39 0.38 0.40 0.42 0.45 0.49 0.51 0.44 0.39 0.32 0.27 0.23 0.25 0.32 0.39 0.44 0.52 0.51 0.42 0.35 0.33 0.31 0.30 0.34 0.39
0.32 0.27 0.24 0.19 0.17 0.24 0.28 0.24 0.18 0.12 0.11 0.11 0.27 0.49 0.39 0.37 0.40 0.39 0.43 0.43 0.36 0.35 0.32 0.29 0.31 0.36 0.30 0.26 0.23 0.24 0.22 0.22 0.30 0.38 0.47 0.54 0.57 0.55 0.43 0.31 0.31 0.33 0.39 0.45
0.39 0.41 0.35 0.28 0.32 0.47 0.32 0.20 0.18 0.19 0.17 0.17 0.22 0.30 0.31 0.35 0.34 0.28 0.27 0.29 0.29 0.31 0.30 0.31 0.32 0.29 0.28 0.26 0.26 0.27 0.26 0.25 0.31 0.38 0.44 0.49 0.53 0.54 0.52 0.48 0.45 0.48 0.57 0.62
0.29 0.42 0.40 0.38 0.44 0.39 0.34 0.29 0.28 0.32 0.32 0.29 0.37 0.31 0.28 0.29 0.26 0.27 0.21 0.22 0.22 0.26 0.29 0.33 0.36 0.39 0.41 0.36 0.37 0.39 0.39 0.40 0.43 0.49 0.56 0.55 0.58 0.61 0.59 0.58 0.61 0.66 0.71 0.70
0.36 0.45 0.52 0.48 0.58 0.57 0.51 0.44 0.39 0.40 0.61 0.46 0.46 0.45 0.41 0.40 0.46 0.42 0.28 0.21 0.22 0.24 0.27 0.30 0.26 0.28 0.38 0.41 0.47 0.52 0.57 0.58 0.63 0.70 0.77 0.77 0.81 0.85 0.81 0.84 0.89 0.89 0.90 0.83
0.74 0.73 0.65 0.64 0.69 0.65 0.53 0.49 0.44 0.73 0.86 0.51 0.46 0.48 0.50 0.50 0.54 0.41 0.31 0.26 0.27 0.23 0.25 0.28 0.33 0.31 0.37 0.43 0.52 0.63 0.71 0.72 0.77 0.80 0.90 1.00 1.08 1.18 1.25 1.31 1.23 1.18 1.14 1.09
0.81 0.91 0.91 0.90 0.96 0.85 0.55 0.53 0.72 0.86 0.67 0.68 0.57 0.51 0.49 0.46 0.46 0.43 0.37 0.34 0.25 0.28 0.31 0.34 0.43 0.40 0.42 0.46 0.55 0.65 0.73 0.83 0.96 1.03 1.14 1.23 1.35 1.38 1.42 1.71 1.74 1.75 1.65 1.43
0.82 0.90 0.92 0.92 0.95 0.73 0.60 0.72 0.77 0.74 0.77 0.76 0.64 0.50 0.48 0.45 0.43 0.43 0.38 0.32 0.25 0.26 0.32 0.34 0.44 0.51 0.53 0.59 0.76 0.91 0.90 0.99 1.14 1.25 1.34 1.42 1.50 1.58 1.67 1.81 1.85 1.86 1.82 1.62
0.81 0.69 0.81 0.92 0.97 0.82 0.66 0.67 0.75 0.73 0.68 0.70 0.64 0.61 0.62 0.55 0.46 0.52 0.47 0.35 0.30 0.29 0.33 0.37 0.46 0.58 0.73 0.81 0.94 1.09 1.06 1.12 1.26 1.33 1.36 1.41 1.51 1.62 1.73 1.85 1.82 1.77 1.71 1.65
0.72 0.77 0.93 1.07 1.02 0.92 0.80 0.77 0.90 0.86 0.75 0.76 0.72 0.69 0.70 0.60 0.49 0.46 0.43 0.41 0.40 0.42 0.47 0.47 0.54 0.67 0.86 1.00 1.09 1.15 1.17 1.27 1.38 1.39 1.43 1.52 1.57 1.62 1.72 1.74 1.77 1.69 1.59 1.51
0.68 0.80 0.97 1.11 1.03 1.10 1.05 0.87 0.91 0.95 0.78 0.78 0.79 0.75 0.63 0.56 0.54 0.50 0.47 0.43 0.42 0.47 0.50 0.54 0.61 0.71 0.85 1.02 1.18 1.26 1.35 1.45 1.53 1.55 1.47 1.54 1.63 1.69 1.73 1.71 1.57 1.41 1.29 1.17